User: anonymous   Login
Location: *
(49.0044°N, 9.5056°E)
Time: 15:19:16
(UTC+00:00)
Language:

Cosmos 2084 Rocket - Orbit

View from above orbital plane
View from above orbital plane
View from above satellite
View from above satellite

Ground track
Ground track

The orbit data is extracted from the following two-line orbital elements,

1 20666U 90055D   19325.77580491 -.00000029  00000-0  14975-4 0  9992
2 20666  62.7875  61.8011 0026071 261.4827  98.3312 14.92286923593627
Epoch (UTC): 21 November 2019 18:37:09
Eccentricity: 0.0026071
inclination: 62.7875°
perigee height: 572 km
apogee height: 609 km
right ascension of ascending node: 61.8011°
argument of perigee: 261.4827°
revolutions per day: 14.92286923
mean anomaly at epoch: 98.3312°
orbit number at epoch: 59362

The dashed part of the orbit path shows where the satellite is in the earth's shadow,  

DLR